Location: Newark
(49.0000°N, 111.9667°W)
Time: 04:57:21
(UTC+00:00)

Envisat - Visible Passes

Search period start: 23 August 2019 00:00
Search period end: 02 September 2019 00:00
Orbit: 764 x 766 km, 98.1° (Epoch: 22 August)

Date Brightness Start Highest point End Pass type
(mag) Time Alt. Az. Time Alt. Az. Time Alt. Az.
23 Aug 6.4 03:27:12 10° W 03:28:13 11° W 03:29:13 10° WNW visible
26 Aug 6.1 03:14:20 10° WSW 03:16:47 13° W 03:19:15 10° WNW visible
29 Aug 5.9 03:02:10 10° SW 03:05:23 17° W 03:08:36 10° NW visible
01 Sep 5.8 02:50:15 10° SW 02:53:59 21° W 02:57:46 10° NW visible
